Location: Cedar Brake
(32.2526°N, 97.8459°W)
Time: 09:07:04
(UTC+00:00)

Cosmos 1417 Rocket - Pass Details

Date: 22 April 2026
Orbit: 951 x 998 km, 83.0° (Epoch: 15 May)

Event Time Altitude Azimuth Distance (km) Brightness Sun altitude
Exits shadow 10:26:19 - 184° (S) 3,177 6.9 -18.1°
Reaches altitude 10° 10:27:35 10° 184° (S) 2,700 6.5 -17.9°
Maximum altitude 10:33:46 89° 99° (E) 965 4.4 -16.7°
Drops below altitude 10° 10:39:55 10° 6° (N) 2,687 7.2 -15.5°
Sets 10:42:25 0° 6° (N) 3,632 8.0 -15.1°
